BULGARIASAT-1 (42801 NORAD) Tracking and Keplerian Element Data

This shows tracking and keplerian element data for the satellite.

Feedback or suggestion? Click here.




ElementValue
Catalog42801
NameBULGARIASAT-1
Epoch Orbit534
Epoch Day348.76306014
Epoch Year2018
RAAN70.1906
Inclination0.0196
Eccentricity0.0002664
Argument of Perigee193.5498
Mean Anonmoly96.2428
Mean Motion1.00270694
Decay Rate2.2E-07
L11 42801U 17038A 18348.76306014 .00000022 00000-0 00000-0 0 9999
L22 42801 0.0196 70.1906 0002664 193.5498 96.2428 1.00270694 5345

Live tracking and technical data element details for BULGARIASAT-1 (NORAD 42801). BULGARIASAT-1 can be tracked NOW for your location showing map with azimuth and elevation plus other details from your city location.

Track the satellite on the map from your city or location and see movement details for azimuth, elevation, latitude, longitude, range, height, and movement on the map or in text.







IsCatalogInMostPopularTable: catalog: 42801, numindb: 118
Update: records affected: 1



GetName: 42801 BULGARIASAT-1

Hit Count: updated at: Sat, 15 Dec 2018 14:40:31 GMT